Location: Bush Observatory
(40.2653°N, 94.3194°W)
Time: 19:22:01
(UTC-05:00)

Vanguard 1 - Visible Passes

Search period start: 31 October 2014 00:00
Search period end: 09 November 2014 23:00
Orbit: 652 x 3835 km, 34.2° (Epoch: 30 October)

Date Brightness Start Highest point End Pass type
(mag) Time Alt. Az. Time Alt. Az. Time Alt. Az.
31 Oct 12.8 05:18:36 10° S 05:23:24 15° SSE 05:27:11 10° SE visible
01 Nov 12.4 05:38:13 10° SSW 05:45:03 20° SSE 05:49:52 10° ESE visible
02 Nov 12.1 04:58:41 10° SSW 05:06:40 27° SSE 05:11:54 10° ESE visible
03 Nov 13.0 03:03:34 14° S 03:06:45 15° SSE 03:11:43 10° ESE visible
03 Nov 11.7 05:19:39 10° SW 05:28:16 33° SSE 05:33:38 10° ESE visible
04 Nov 12.7 03:24:39 18° S 03:28:30 21° SSE 03:34:36 10° ESE visible
04 Nov 11.4 05:40:57 10° SW 05:49:49 40° S 05:55:12 10° E visible
05 Nov 12.3 03:45:37 22° S 03:50:12 28° SSE 03:56:47 10° ESE visible
05 Nov 11.1 06:02:29 10° WSW 06:11:20 46° S 06:16:39 10° E visible
06 Nov 13.3 01:53:39 13° SE 01:53:39 13° SE 01:55:41 10° ESE visible
06 Nov 12.0 04:06:28 24° SSW 04:11:52 35° SSE 04:18:36 10° E visible
06 Nov 10.9 06:24:10 10° WSW 06:32:50 50° S 06:38:03 10° ESE visible
07 Nov 13.0 02:14:24 20° SE 02:14:24 20° SE 02:18:56 10° ESE visible
07 Nov 11.7 04:27:12 24° SW 04:33:31 42° SSE 04:40:14 10° E visible
08 Nov 12.7 02:35:05 27° SE 02:35:05 27° SE 02:41:20 10° E visible
08 Nov 11.4 04:47:52 22° SW 04:55:07 48° S 05:01:44 10° E visible
09 Nov 12.3 02:55:40 35° SSE 02:55:40 35° SSE 03:03:19 10° E visible
09 Nov 11.2 05:08:27 19° WSW 05:16:42 54° S 05:23:10 10° E visible
